FW4191 Weather Reports


Display with metric or nautical units.
time (UTC)temp
F
wind
direction
speed
MPH
gust
MPH
rain 1hr
in
rain 24hr
in
rain mn
in
humidity
%
barometer
mb
20260505082909 61 202 0.0 0.0 0.00 0.00 0.00 67 1071.7
20260505082807 61 202 0.0 0.0 0.00 0.00 0.00 67 1071.6
20260505081809 62 202 0.0 0.0 0.00 0.00 0.00 66 1071.4
20260505080907 62 202 0.0 2.0 0.00 0.00 0.00 65 1071.1
20260505080809 62 202 0.0 0.0 0.00 0.00 0.00 65 1071.2
20260505075806 62 202 0.0 0.0 0.00 0.00 0.00 66 1071.1
20260505075709 62 202 0.0 0.0 0.00 0.00 0.00 66 1071.1
20260505074708 63 180 0.0 0.0 0.00 0.00 0.00 65 1071.1
20260505073708 63 157 0.0 0.0 0.00 0.00 0.00 65 1071.1
20260505072807 63 67 0.0 0.0 0.00 0.00 0.00 63 1070.9
20260505071809 64 202 0.0 0.0 0.00 0.00 0.00 62 1070.9
20260505070907 64 202 0.0 0.0 0.00 0.00 0.00 62 1071.0
20260505065911 64 202 0.0 0.0 0.00 0.00 0.00 62 1071.0
20260505064924 65 60 1.0 2.0 0.00 0.00 0.00 62 1070.8
20260505064809 65 319 0.0 1.0 0.00 0.00 0.00 61 1070.8
20260505064723 65 275 0.0 4.0 0.00 0.00 0.00 62 1070.9
20260505062907 64 221 2.0 6.0 0.00 0.00 0.00 63 1070.7
20260505061908 64 321 0.0 3.0 0.00 0.00 0.00 64 1070.6
20260505061825 64 337 0.0 0.0 0.00 0.00 0.00 63 1070.6
20260505060808 63 165 0.0 2.0 0.00 0.00 0.00 65 1070.4
20260505060709 63 211 0.0 2.0 0.00 0.00 0.00 65 1070.5
20260505055623 63 158 0.0 0.0 0.00 0.00 0.00 65 1070.2
20260505054622 63 192 0.0 2.0 0.00 0.00 0.00 63 1070.0
20260505053709 64 180 0.0 0.0 0.00 0.00 0.00 62 1070.1
20260505052710 64 176 0.0 1.0 0.00 0.00 0.00 62 1069.9
20260505052623 65 205 0.0 0.0 0.00 0.00 0.00 62 1069.9
20260505050708 65 220 2.0 4.0 0.00 0.00 0.00 62 1069.9
20260505040809 65 96 1.0 4.0 0.00 0.00 0.00 64 1070.6
20260505035817 64 180 0.0 1.0 0.00 0.00 0.00 65 1070.7
20260505033835 64 182 0.0 2.0 0.00 0.00 0.00 64 1070.6
20260505030920 65 202 0.0 0.0 0.00 0.00 0.00 62 1070.6
20260505030018 65 174 0.0 1.0 0.00 0.00 0.00 62 1070.5
20260505025018 66 180 0.0 0.0 0.00 0.00 0.00 61 1070.4
20260505024035 66 247 0.0 2.0 0.00 0.00 0.00 60 1070.2
20260505023021 66 104 0.0 2.0 0.00 0.00 0.00 60 1070.0
20260505022117 67 292 0.0 0.0 0.00 0.00 0.00 59 1069.8
20260505021117 67 247 0.0 0.0 0.00 0.00 0.00 57 1069.7
20260505021017 67 267 0.0 1.0 0.00 0.00 0.00 57 1069.7
20260505020019 67 67 0.0 0.0 0.00 0.00 0.00 57 1069.5
20260505015020 68 45 0.0 0.0 0.00 0.00 0.00 56 1069.5
20260505014117 68 202 0.0 0.0 0.00 0.00 0.00 55 1069.5
20260505012118 69 210 0.0 1.0 0.00 0.00 0.00 53 1069.3
20260505012019 69 279 0.0 2.0 0.00 0.00 0.00 53 1069.3
20260505011117 70 274 0.0 0.0 0.00 0.00 0.00 52 1069.3
20260505010116 70 214 3.0 8.0 0.00 0.00 0.00 51 1069.1
20260505005118 70 115 0.0 2.0 0.00 0.00 0.00 50 1069.1
20260505003117 72 221 0.0 2.0 0.00 0.00 0.00 48 1069.2
20260505003017 72 200 1.0 4.0 0.00 0.00 0.00 47 1069.2
20260505002017 72 212 1.0 3.0 0.00 0.00 0.00 46 1069.3
20260505001917 72 297 0.0 3.0 0.00 0.00 0.00 46 1069.3
20260505001818 72 194 0.0 3.0 0.00 0.00 0.00 47 1069.2
20260505001718 72 222 4.0 10.0 0.00 0.00 0.00 47 1069.2
20260505000817 73 238 2.0 5.0 0.00 0.00 0.00 45 1069.3
20260504234719 74 194 4.0 8.0 0.00 0.00 0.00 46 1069.5
20260504233718 74 223 3.0 5.0 0.00 0.00 0.00 46 1069.7
20260504232816 74 298 2.0 4.0 0.00 0.00 0.00 48 1069.6
20260504231817 73 203 1.0 4.0 0.00 0.00 0.00 52 1069.6
20260504230816 74 225 0.0 0.0 0.00 0.00 0.00 50 1069.7
20260504225831 74 225 0.0 0.0 0.00 0.00 0.00 49 1069.9
20260504224919 74 247 0.0 0.0 0.00 0.00 0.00 47 1069.9
20260504221919 74 224 2.0 5.0 0.00 0.00 0.00 50 1070.1
20260504221016 73 167 0.0 2.0 0.00 0.00 0.00 52 1070.5
20260504220918 73 247 0.0 0.0 0.00 0.00 0.00 52 1070.5
20260504215017 73 273 0.0 0.0 0.00 0.00 0.00 51 1070.6
20260504212017 74 291 0.0 0.0 0.00 0.00 0.00 52 1071.0
20260504210036 73 203 2.0 5.0 0.00 0.00 0.00 52 1071.3
20260504205118 73 351 0.0 3.0 0.00 0.00 0.00 53 1071.2
20260504205017 73 202 0.0 0.0 0.00 0.00 0.00 53 1071.3
20260504204933 73 202 0.0 1.0 0.00 0.00 0.00 52 1071.3
20260504203931 72 236 2.0 9.0 0.00 0.00 0.00 52 1071.7
20260504203818 73 268 1.0 4.0 0.00 0.00 0.00 52 1071.6
20260504202917 73 234 2.0 6.0 0.00 0.00 0.00 53 1071.8
20260504201916 72 272 0.0 3.0 0.00 0.00 0.00 58 1071.9
20260504200918 70 258 1.0 4.0 0.00 0.00 0.00 60 1071.6
20260504200818 70 222 1.0 5.0 0.00 0.00 0.00 60 1071.6
20260504195916 68 202 0.0 2.0 0.00 0.00 0.00 64 1071.8
20260504193919 65 216 0.0 2.0 0.00 0.00 0.00 69 1072.3
20260504192919 64 67 1.0 2.0 0.00 0.00 0.00 69 1072.2
20260504191918 65 180 0.0 0.0 0.00 0.00 0.00 66 1073.2
20260504191016 66 202 0.0 2.0 0.00 0.00 0.00 60 1072.8
20260504190016 67 236 0.0 1.0 0.00 0.00 0.00 60 1073.7
20260504185017 67 233 5.0 9.0 0.00 0.00 0.00 58 1073.3
20260504184934 68 242 3.0 7.0 0.00 0.00 0.00 58 1073.3
20260504183115 69 215 3.0 6.0 0.00 0.00 0.00 54 1072.9
20260504183036 69 232 4.0 8.0 0.00 0.00 0.00 53 1072.9
20260504182117 70 271 1.0 6.0 0.00 0.00 0.00 53 1072.5
20260504181117 71 258 2.0 4.0 0.00 0.00 0.00 56 1072.2
20260504180117 71 215 5.0 9.0 0.00 0.00 0.00 57 1072.1
20260504174116 69 211 1.0 4.0 0.00 0.00 0.00 57 1072.3
20260504172016 68 242 1.0 5.0 0.00 0.00 0.00 59 1072.2
20260504171034 67 186 0.0 1.0 0.00 0.00 0.00 59 1072.3
20260504170116 67 205 2.0 5.0 0.00 0.00 0.00 59 1072.4
20260504160115 67 252 3.0 5.0 0.00 0.00 0.00 58 1073.1
20260504151118 64 221 4.0 8.0 0.00 0.00 0.00 59 1073.3
20260504141315 61 222 2.0 7.0 0.00 0.01 0.00 64 1073.6
20260504140317 60 231 5.0 7.0 0.00 0.02 0.00 66 1073.8
20260504130316 55 209 0.0 1.0 0.00 0.24 0.00 69 1074.0
20260504130216 55 250 0.0 2.0 0.00 0.25 0.00 69 1074.0
20260504120316 51 302 0.0 0.0 0.00 0.30 0.00 73 1073.8
20260504110316 46 337 0.0 0.0 0.00 0.30 0.00 82 1073.6
20260504100415 45 202 0.0 0.0 0.00 0.30 0.00 78 1073.9